[[{"header":{"parameterUnit":"m.s-1","parameterCategory":2,"la1":30.2991,"la2":30.254,"lo1":-89.0895,"lo2":-89.0444,"dy":0.0017,"dx":0.0017,"nx":28,"ny":28,"refTime":"2025-03-30T21:00:00:Z","depth":"0","parameterNumber":2,"parameterNumberName":"U-component_of_CURRENTS"},"data":[0,0,0,0,0,0,0,0,0,0,0,0,0,0,0,0,0,0,0,0,0,0,0,0,0,0,0,0,0,0,0,0,0,0,0,0,0,0,0,0,0,0,0,0,0,0,0,0,0,0,0,0,0,0,0,0,0,0,0.2555,0.2556,0,0.258,0.258,0.258,0.255,0.2549,0.2549,0.2548,0.2503,0.2502,0.2502,0,0,0,0,0,0,0,0,0,0,0,0,0,0.242,0.2422,0.2555,0.2556,0.2556,0.258,0.258,0.258,0.255,0.2549,0.2548,0.2548,0.2503,0.2502,0.2502,0,0,0,0,0,0,0,0,0,0,0,0,0,0.2461,0.2423,0.2555,0.2548,0.2548,0.258,0.258,0.258,0.255,0.2549,0.2548,0.2547,0.2503,0.2502,0.2502,0.2518,0,0,0.2499,0.2499,0,0,0,0,0,0,0,0,0.2459,0.2465,0.2548,0.2548,0.2548,0.2565,0.2516,0.2557,0.2551,0.2544,0.2548,0.2547,0.2521,0.2519,0.252,0.2516,0.2514,0.2499,0.2499,0.2498,0.2498,0,0,0,0,0,0,0,0.2456,0.2464,0.256,0.2549,0.2549,0.2523,0.2527,0.2523,0.2533,0.2545,0.2544,0.2554,0.252,0.2521,0.2519,0.2513,0.2499,0.2498,0.2498,0.2498,0.258,0.2583,0,0,0,0,0,0,0.2467,0.2462,0.256,0.2562,0.2505,0.2526,0.2531,0.2557,0.2535,0.2533,0.2555,0.2553,0.2523,0.252,0.2517,0.2572,0.2498,0.2497,0.2497,0.2577,0.2581,0.2583,0,0,0,0,0,0,0.2464,0.2476,0.2559,0.2514,0.2524,0.2531,0.2559,0.2558,0.2567,0.2544,0.2539,0.2566,0.2522,0.2518,0.2538,0.2568,0.2497,0.2496,0.2574,0.2578,0.2582,0.2658,0,0,0,0,0,0,0.246,0.2475,0.2495,0.2516,0.2527,0.2596,0.256,0.2559,0.2577,0.2574,0.2552,0.2546,0.2521,0.254,0.2537,0.2566,0.2496,0.2571,0.2576,0.2581,0.2652,0.2664,0.2675,0,0,0,0,0,0.2456,0.2494,0.2497,0.2508,0.2556,0.2598,0.2602,0.2598,0.2578,0.2598,0.2587,0.2547,0.257,0.2541,0.2537,0.2567,0.2568,0.2575,0.258,0.2647,0.2662,0.2674,0,0,0,0,0,0,0.2451,0.2495,0.2499,0.255,0.258,0.2595,0.2615,0.261,0.2616,0.2611,0.2577,0.2572,0.2608,0.2584,0.2553,0.2611,0.2565,0.2571,0.2617,0.2631,0.2642,0.2641,0.2495,0,0,0,0,0,0.2461,0.2496,0.2534,0.2575,0.2595,0.2605,0.262,0.2624,0.2634,0.2635,0.2623,0.2618,0.2631,0.2627,0.2636,0.2657,0.2646,0.2679,0.269,0.2699,0.2701,0.2731,0.2744,0.2603,0.2603,0.2603,0,0,0.2468,0.25,0.2518,0.2576,0.2595,0.2636,0.2611,0.2649,0.2674,0.263,0.2658,0.2662,0.2651,0.2685,0.2697,0.2664,0.2736,0.2707,0.2715,0.2711,0.2738,0.2752,0.2764,0.2607,0.2607,0.2606,0,0,0.2503,0.2534,0.2574,0.2606,0.2652,0.2665,0.2682,0.2712,0.2716,0.2749,0.2734,0.2759,0.2762,0.2769,0.2769,0.2849,0.2805,0.2853,0.2891,0.2921,0.2932,0.2941,0.2947,0.2956,0.2845,0.2845,0.2845,0,0.2512,0.2568,0.2592,0.2642,0.2669,0.2683,0.2728,0.2745,0.2775,0.2785,0.2769,0.2811,0.2804,0.2846,0.2875,0.2872,0.2871,0.2834,0.2933,0.2942,0.2951,0.2954,0.2963,0.2849,0.2849,0.2848,0.2848,0,0.2574,0.2619,0.265,0.2713,0.2747,0.2793,0.2824,0.2852,0.2855,0.2865,0.2913,0.2917,0.2934,0.2948,0.2929,0.2993,0.2968,0.2952,0.2891,0.2969,0.2968,0.2976,0.2856,0.2854,0.2853,0.2852,0,0,0.2588,0.2675,0.2685,0.2712,0.2786,0.2815,0.2871,0.2918,0.2937,0.2972,0.3003,0.3043,0.304,0.3042,0.3036,0.3058,0.312,0.3028,0.3028,0.302,0.3171,0.3026,0.3021,0.3118,0.312,0.3121,0.3146,0,0.2627,0.271,0.2751,0.282,0.2859,0.2896,0.2939,0.2979,0.3,0.3037,0.3058,0.3087,0.3076,0.3083,0.3115,0.3123,0.3146,0.3114,0.3108,0.3108,0.2958,0.3027,0.2895,0.2895,0.3154,0.3155,0.3156,0,0.2664,0.2714,0.2788,0.2852,0.2873,0.2916,0.297,0.3011,0.3068,0.3083,0.3128,0.314,0.3195,0.3166,0.3223,0.3201,0.3197,0.3195,0.3196,0.3036,0.2978,0.2861,0.29,0.2828,0.3168,0.3167,0.3166,0,0.2633,0.2729,0.2779,0.2808,0.2894,0.2925,0.2963,0.302,0.3048,0.3111,0.3139,0.32,0.3227,0.3254,0.325,0.3245,0.3291,0.3281,0.3149,0.3138,0.301,0.2983,0.2963,0.3322,0.3322,0.3322,0.3322,0,0.265,0.2684,0.2763,0.2795,0.2837,0.29,0.2941,0.2987,0.3054,0.3083,0.3154,0.3184,0.3251,0.3279,0.3275,0.3225,0.3313,0.3163,0.3139,0.3032,0.3008,0.2924,0.29,0.3322,0.3322,0.3322,0.3322,0,0.2607,0.2668,0.2719,0.2806,0.2826,0.2849,0.2922,0.295,0.302,0.3067,0.3091,0.319,0.3214,0.325,0.3282,0.3233,0.3101,0.3167,0.3018,0.2974,0.2749,0.2734,0.2576,0.2492,0.3031,0.3028,0.3025,0,0.2589,0.2617,0.2701,0.2722,0.2762,0.2803,0.2832,0.2915,0.2951,0.3047,0.3072,0.3129,0.3132,0.3128,0.3066,0.3022,0.2972,0.2858,0.2817,0.2716,0.2686,0.2604,0.2541,0.2696,0.269,0.2686,0.2682,0,0.2554,0.2588,0.2637,0.2672,0.2708,0.273,0.2782,0.281,0.2898,0.2931,0.2962,0.297,0.297,0.2856,0.2798,0.2761,0.2693,0.2761,0.2719,0.2463,0.2314,0.2227,0.2694,0.2644,0.2647,0.265,0.2652,0.2654,0.2515,0.253,0.2589,0.2609,0.2637,0.2636,0.2609,0.2665,0.2679,0.2676,0.278,0.2713,0.2686,0.2576,0.2528,0.2353,0.2385,0.2266,0.2273,0.2212,0.2067,0.2417,0.229,0.2291,0.2293,0.2294,0.2296,0,0.2448,0.2481,0.2512,0.252,0.2491,0.2536,0.255,0.2488,0.2435,0.2467,0.2436,0.2344,0.2227,0.2201,0.2044,0.1909,0.1852,0.1844,0.1752,0.1729,0.2104,0.2025,0.1757,0.1757,0.1757,0.1757,0.1757,0.1757,0.2424,0.2425,0.2438,0.2364,0.2353,0.2246,0.2218,0.2152,0.2136,0.2008,0.1925,0.1925,0.1953,0.1838,0.1672,0.1624,0.1517,0.1385,0.1416,0.1744,0.1786,0.1826,0.1748,0.1426,0.1426,0.0967,0.0964,0.0961]},{"header":{"parameterUnit":"m.s-1","parameterCategory":2,"la1":30.2991,"la2":30.254,"lo1":-89.0895,"lo2":-89.0444,"dy":0.0017,"dx":0.0017,"nx":28,"ny":28,"refTime":"2025-03-30T21:00:00:Z","depth":"0","parameterNumber":3,"parameterNumberName":"V-component_of_CURRENTS"},"data":[0,0,0,0,0,0,0,0,0,0,0,0,0,0,0,0,0,0,0,0,0,0,0,0,0,0,0,0,0,0,0,0,0,0,0,0,0,0,0,0,0,0,0,0,0,0,0,0,0,0,0,0,0,0,0,0,0,0,-0.0039,-0.004,0,-0.0102,-0.0103,-0.0104,-0.0121,-0.0121,-0.012,-0.012,-0.0166,-0.0168,-0.0169,0,0,0,0,0,0,0,0,0,0,0,0,0,0.0046,0.0044,-0.0039,-0.004,-0.0041,-0.0102,-0.0103,-0.0104,-0.0121,-0.0121,-0.012,-0.012,-0.0166,-0.0168,-0.017,0,0,0,0,0,0,0,0,0,0,0,0,0,-0.0002,0.0044,-0.0039,-0.0057,-0.0059,-0.0102,-0.0103,-0.0104,-0.0121,-0.0121,-0.012,-0.012,-0.0165,-0.0168,-0.017,-0.0195,0,0,-0.0177,-0.0178,0,0,0,0,0,0,0,0,0.0001,-0.0005,-0.0053,-0.0056,-0.0058,-0.0103,-0.009,-0.0134,-0.0122,-0.0098,-0.012,-0.0119,-0.0144,-0.0148,-0.0162,-0.0198,-0.02,-0.0177,-0.0179,-0.018,-0.018,0,0,0,0,0,0,0,0.0004,-0.0002,-0.0064,-0.0054,-0.0057,-0.0069,-0.0075,-0.0099,-0.0123,-0.01,-0.0101,-0.0108,-0.0145,-0.0159,-0.0163,-0.02,-0.0177,-0.0179,-0.0181,-0.0182,-0.0277,-0.0278,0,0,0,0,0,0,0.0012,0.0001,-0.0062,-0.0066,-0.0027,-0.0071,-0.0077,-0.0089,-0.0123,-0.0128,-0.0109,-0.0109,-0.0156,-0.016,-0.0164,-0.0186,-0.018,-0.0182,-0.0183,-0.0276,-0.0278,-0.0279,0,0,0,0,0,0,0.0014,0.0007,-0.006,-0.0034,-0.0043,-0.0073,-0.0086,-0.0091,-0.0106,-0.013,-0.0134,-0.0119,-0.0155,-0.0161,-0.0191,-0.0188,-0.0183,-0.0185,-0.0275,-0.0277,-0.0278,-0.0235,0,0,0,0,0,0,0.0017,0.0008,0.0002,-0.0033,-0.0044,-0.0085,-0.0087,-0.0093,-0.0111,-0.0112,-0.014,-0.0144,-0.0155,-0.0187,-0.0193,-0.0191,-0.0187,-0.0273,-0.0276,-0.0278,-0.0235,-0.0235,-0.0235,0,0,0,0,0,0.002,0.0008,0.0002,-0.0006,-0.0052,-0.0086,-0.0093,-0.0112,-0.0112,-0.0122,-0.0142,-0.0143,-0.0205,-0.019,-0.0197,-0.0195,-0.0272,-0.0275,-0.0277,-0.0235,-0.0235,-0.0235,0,0,0,0,0,0,0.0034,0.0004,-0.0003,-0.0026,-0.0053,-0.0089,-0.01,-0.0114,-0.0139,-0.0136,-0.0157,-0.0163,-0.0187,-0.0207,-0.019,-0.0233,-0.0239,-0.0243,-0.0205,-0.0205,-0.0205,-0.017,-0.0189,0,0,0,0,0,0.0036,0.0024,-0.001,-0.0028,-0.004,-0.007,-0.0085,-0.0098,-0.0125,-0.0135,-0.0155,-0.018,-0.0205,-0.0216,-0.0243,-0.0266,-0.025,-0.0273,-0.0273,-0.0272,-0.0252,-0.0235,-0.0229,-0.0287,-0.0287,-0.0287,0,0,0.0036,0.0018,0.0011,-0.0025,-0.0045,-0.0057,-0.0078,-0.0101,-0.0105,-0.0137,-0.015,-0.0181,-0.0214,-0.0237,-0.025,-0.025,-0.025,-0.0276,-0.0274,-0.0254,-0.0236,-0.023,-0.0224,-0.0289,-0.0288,-0.0288,0,0,0.0036,0.0015,0.0009,-0.0009,-0.0037,-0.0053,-0.0059,-0.0093,-0.0102,-0.0127,-0.0149,-0.0174,-0.0217,-0.0232,-0.0247,-0.0267,-0.0252,-0.0287,-0.0251,-0.0235,-0.0229,-0.0223,-0.0189,-0.0181,-0.0284,-0.0284,-0.0284,0,0.0037,0.0028,0.0001,-0.0008,-0.0015,-0.0047,-0.005,-0.0069,-0.0107,-0.0104,-0.0124,-0.017,-0.0208,-0.0217,-0.0232,-0.0261,-0.0244,-0.0242,-0.023,-0.0224,-0.0219,-0.0185,-0.0177,-0.0282,-0.0282,-0.0282,-0.0283,0,0.0038,0.0031,0.0025,0.0012,-0.0002,-0.0013,-0.0036,-0.0046,-0.006,-0.0071,-0.0085,-0.0133,-0.0154,-0.0182,-0.0216,-0.0206,-0.0203,-0.0229,-0.0217,-0.0209,-0.0176,-0.0167,-0.0279,-0.028,-0.0281,-0.0281,0,0,0.0043,0.003,0.0031,0.004,0.0012,0.0006,-0.0,-0.0005,0.0018,-0.0025,0.0008,-0.0066,-0.0082,-0.0102,-0.0145,-0.0143,-0.0109,-0.0171,-0.0171,-0.0112,-0.0052,-0.0074,-0.0067,-0.0129,-0.0127,-0.0126,-0.0039,0,0.0056,0.0063,0.0047,0.006,0.0066,0.0045,0.0051,0.0045,0.0042,0.0064,0.0027,0.003,-0.0054,-0.0056,-0.0072,-0.0097,-0.0086,-0.0129,-0.0089,-0.0087,-0.0087,-0.0058,-0.0035,0.0041,-0.0031,-0.0029,-0.0028,0,0.0069,0.0077,0.0093,0.0111,0.0112,0.0116,0.0145,0.0146,0.0162,0.0161,0.0156,0.0136,0.0121,0.0057,0.0037,0.0015,-0.0015,-0.0033,-0.003,-0.0055,-0.0094,0.0017,0.006,-0.0003,-0.0015,-0.0016,-0.0017,0,0.0109,0.0115,0.0137,0.0137,0.0144,0.0158,0.0168,0.0183,0.0217,0.0238,0.0281,0.0245,0.0263,0.0209,0.0137,0.0097,0.0142,0.0084,0.0046,0.0045,0.0072,0.007,0.0082,0.0092,0.0092,0.0092,0.0092,0,0.0135,0.0158,0.0163,0.0175,0.0224,0.021,0.0268,0.0274,0.032,0.0395,0.034,0.0406,0.0304,0.0305,0.0211,0.0165,0.0197,0.0077,0.007,0.0084,0.0082,0.0032,-0.0025,0.0095,0.0095,0.0094,0.0093,0,0.0178,0.0173,0.0209,0.0229,0.0242,0.0282,0.0339,0.0395,0.0418,0.0522,0.0541,0.0557,0.0552,0.0455,0.0401,0.0286,0.0191,0.0203,0.0231,0.0224,0.0091,0.0035,0.004,0.0001,0.0178,0.0178,0.0178,0,0.0202,0.0221,0.0259,0.0297,0.0309,0.0364,0.0414,0.0441,0.0514,0.0625,0.07,0.0733,0.0774,0.068,0.0496,0.0361,0.0252,0.027,0.0176,0.0111,0.0043,-0.0004,-0.0041,0.0239,0.024,0.024,0.0241,0,0.0257,0.0267,0.0301,0.0378,0.0432,0.05,0.0578,0.065,0.0714,0.0811,0.0951,0.1001,0.0914,0.08,0.059,0.0467,0.0217,0.0272,0.0207,0.01,0.0051,0.0002,0.0163,0.0244,0.0244,0.0244,0.0244,0.0243,0.0309,0.0349,0.0396,0.0473,0.0542,0.0643,0.0714,0.0817,0.095,0.1105,0.1139,0.1226,0.1043,0.0765,0.0596,0.029,0.0257,0.0184,0.0129,0.0095,0.0026,0.0194,0.0248,0.0248,0.0248,0.0247,0.0247,0,0.0378,0.0423,0.0495,0.0584,0.0676,0.0694,0.0832,0.0916,0.1086,0.1222,0.1334,0.1299,0.1082,0.08,0.0399,0.0192,0.0095,0.0078,0.003,0.0,0.0174,0.0143,0.0173,0.0173,0.0173,0.0173,0.0173,0.0174,0.0418,0.0497,0.053,0.0685,0.0754,0.0869,0.0951,0.1086,0.1199,0.1362,0.1414,0.1439,0.1244,0.0598,0.0177,0.0072,-0.0071,-0.0099,-0.0183,-0.0058,-0.0052,-0.0047,-0.0089,-0.0107,-0.0107,-0.032,-0.0322,-0.0324]}],[{"header":{"parameterUnit":"m.s-1","parameterCategory":2,"la1":30.2991,"la2":30.254,"lo1":-89.0895,"lo2":-89.0444,"dy":0.0017,"dx":0.0017,"nx":28,"ny":28,"refTime":"2025-03-30T21:00:00:Z","depth":"2","parameterNumber":2,"parameterNumberName":"U-component_of_CURRENTS"},"data":[0,0,0,0,0,0,0,0,0,0,0,0,0,0,0,0,0,0,0,0,0,0,0,0,0,0,0,0,0,0,0,0,0,0,0,0,0,0,0,0,0,0,0,0,0,0,0,0,0,0,0,0,0,0,0,0,0,0,0.1898,0.1898,0,0.1881,0.1881,0.188,0.1864,0.1863,0.1863,0.1863,0.1859,0.1859,0.1859,0,0,0,0,0,0,0,0,0,0,0,0,0,0.1912,0.1912,0.1898,0.1898,0.1898,0.1881,0.1881,0.188,0.1864,0.1863,0.1863,0.1863,0.1859,0.1859,0.1859,0,0,0,0,0,0,0,0,0,0,0,0,0,0.1901,0.1912,0.1898,0.1887,0.1886,0.1881,0.1881,0.188,0.1864,0.1863,0.1863,0.1863,0.1859,0.1859,0.1859,0.1865,0,0,0.1859,0.1859,0,0,0,0,0,0,0,0,0.1902,0.1901,0.1889,0.1888,0.1887,0.1874,0.1884,0.1876,0.1864,0.1872,0.1863,0.1863,0.1866,0.1865,0.1862,0.1865,0.1865,0.1859,0.1859,0.186,0.186,0,0,0,0,0,0,0,0.1903,0.1901,0.1891,0.1889,0.1888,0.1882,0.188,0.1882,0.1871,0.1871,0.187,0.1869,0.1865,0.1862,0.1862,0.1865,0.1859,0.1859,0.186,0.186,0.1911,0.1912,0,0,0,0,0,0,0.1906,0.1902,0.1891,0.189,0.1894,0.1882,0.188,0.1878,0.187,0.1869,0.1869,0.1868,0.1862,0.1862,0.1862,0.1915,0.186,0.186,0.186,0.1909,0.1911,0.1912,0,0,0,0,0,0,0.1906,0.1905,0.1892,0.1896,0.1894,0.1882,0.1881,0.1878,0.1878,0.1869,0.1867,0.1872,0.1862,0.1862,0.1873,0.1913,0.186,0.186,0.1908,0.191,0.1912,0.1991,0,0,0,0,0,0,0.1907,0.1905,0.1908,0.1896,0.1894,0.1895,0.1881,0.1878,0.1878,0.1877,0.1871,0.187,0.1861,0.1873,0.1873,0.1912,0.186,0.1906,0.1909,0.1911,0.1987,0.1996,0.2003,0,0,0,0,0,0.1907,0.1909,0.1908,0.1907,0.1897,0.1895,0.1894,0.1884,0.1879,0.1882,0.1882,0.187,0.1889,0.1874,0.1874,0.1914,0.1905,0.1908,0.1911,0.1983,0.1994,0.2003,0,0,0,0,0,0,0.192,0.1908,0.1906,0.1905,0.1904,0.1892,0.1899,0.1889,0.1891,0.1896,0.1881,0.1881,0.191,0.1896,0.1879,0.1935,0.1898,0.1901,0.1953,0.1963,0.1971,0.1974,0.186,0,0,0,0,0,0.1924,0.1925,0.1914,0.192,0.1921,0.1912,0.1911,0.1906,0.1904,0.1904,0.1905,0.1909,0.1922,0.1927,0.1934,0.1958,0.1951,0.1985,0.1993,0.2,0.2002,0.2027,0.2038,0.1922,0.1922,0.1922,0,0,0.193,0.1928,0.1926,0.1923,0.1926,0.1929,0.1912,0.1919,0.193,0.1905,0.1932,0.1939,0.1934,0.1968,0.198,0.196,0.203,0.2003,0.2009,0.2008,0.2032,0.2043,0.2053,0.1924,0.1924,0.1923,0,0,0.1944,0.1945,0.1948,0.1947,0.1952,0.1952,0.1955,0.1955,0.1964,0.1983,0.198,0.2005,0.2015,0.2029,0.2034,0.2087,0.2073,0.2095,0.2139,0.2164,0.2174,0.2183,0.2192,0.2201,0.2098,0.2098,0.2098,0,0.1954,0.1955,0.1951,0.1956,0.1962,0.1963,0.1972,0.1983,0.1989,0.2006,0.2002,0.2049,0.2046,0.2092,0.2114,0.2107,0.2112,0.2104,0.2176,0.2184,0.2191,0.2199,0.2208,0.2102,0.2102,0.2101,0.2101,0,0.1962,0.1967,0.1976,0.1984,0.1991,0.2003,0.2015,0.2033,0.2051,0.2063,0.2119,0.2131,0.2152,0.2171,0.2157,0.2219,0.2203,0.2185,0.2152,0.2208,0.2212,0.222,0.2108,0.2107,0.2105,0.2104,0,0,0.1968,0.1978,0.1981,0.1981,0.2007,0.2005,0.2047,0.2075,0.21,0.2139,0.2178,0.2226,0.224,0.2246,0.2253,0.2284,0.2342,0.2262,0.2261,0.2274,0.2394,0.2325,0.2326,0.2342,0.2344,0.2345,0.2378,0,0.1978,0.1982,0.1997,0.201,0.2009,0.2033,0.2074,0.2103,0.2137,0.2177,0.2222,0.2263,0.2267,0.2288,0.2324,0.2336,0.2365,0.2334,0.2336,0.2336,0.2269,0.2333,0.2133,0.2141,0.2385,0.2387,0.2387,0,0.1972,0.1978,0.1995,0.2012,0.202,0.2039,0.2088,0.2124,0.2189,0.2221,0.2279,0.2303,0.2368,0.2353,0.2422,0.2405,0.2405,0.2415,0.2415,0.2326,0.228,0.2123,0.2145,0.24,0.2399,0.2398,0.2397,0,0.1952,0.1967,0.1982,0.1986,0.2022,0.2045,0.2073,0.2138,0.218,0.2249,0.2277,0.2358,0.2398,0.243,0.2449,0.244,0.251,0.2489,0.243,0.2424,0.2239,0.2214,0.2529,0.2529,0.2529,0.2529,0.2529,0,0.1941,0.1941,0.1968,0.1973,0.1997,0.2031,0.2082,0.2119,0.2198,0.2242,0.2299,0.234,0.2421,0.2461,0.2469,0.2476,0.2524,0.2449,0.2435,0.2261,0.2239,0.2445,0.2435,0.253,0.253,0.253,0.2529,0,0.1902,0.1929,0.1934,0.1974,0.1987,0.2002,0.207,0.2103,0.2182,0.2235,0.2259,0.235,0.2403,0.2458,0.2514,0.2493,0.2505,0.2486,0.2273,0.2233,0.2397,0.239,0.2432,0.243,0.2428,0.2427,0.2426,0,0.1882,0.1885,0.1921,0.1932,0.1951,0.1983,0.2014,0.2091,0.2127,0.2225,0.2241,0.2322,0.2347,0.2412,0.2401,0.2406,0.247,0.2217,0.2161,0.2409,0.2391,0.2387,0.2383,0.1949,0.1944,0.194,0.1937,0,0.1842,0.1864,0.1876,0.1893,0.1915,0.1928,0.1968,0.1991,0.2082,0.212,0.2164,0.2192,0.2255,0.2179,0.2199,0.2174,0.2203,0.2133,0.2452,0.2006,0.1956,0.1938,0.195,0.1901,0.1904,0.1907,0.1909,0.191,0.1816,0.1807,0.183,0.1836,0.1857,0.1846,0.1831,0.1872,0.1898,0.1925,0.2023,0.1999,0.2029,0.1959,0.1894,0.1849,0.2007,0.1912,0.1923,0.1939,0.1879,0.1829,0.1737,0.174,0.1742,0.1744,0.1746,0,0.1761,0.1756,0.1764,0.1759,0.1738,0.1777,0.178,0.1744,0.1719,0.1771,0.1793,0.1644,0.1586,0.1618,0.1486,0.1481,0.1459,0.1423,0.1373,0.1411,0.1444,0.1357,0.1078,0.1076,0.1074,0.1072,0,0,0.1733,0.1703,0.1694,0.1633,0.1636,0.1568,0.1546,0.1506,0.1509,0.1457,0.1435,0.1544,0.1581,0.1319,0.1276,0.1154,0.1277,0.1107,0.1644,0.1625,0.1656,0.1729,0.1638,0,0,0,0,0]},{"header":{"parameterUnit":"m.s-1","parameterCategory":2,"la1":30.2991,"la2":30.254,"lo1":-89.0895,"lo2":-89.0444,"dy":0.0017,"dx":0.0017,"nx":28,"ny":28,"refTime":"2025-03-30T21:00:00:Z","depth":"2","parameterNumber":3,"parameterNumberName":"V-component_of_CURRENTS"},"data":[0,0,0,0,0,0,0,0,0,0,0,0,0,0,0,0,0,0,0,0,0,0,0,0,0,0,0,0,0,0,0,0,0,0,0,0,0,0,0,0,0,0,0,0,0,0,0,0,0,0,0,0,0,0,0,0,0,0,0.0203,0.0202,0,0.0184,0.0184,0.0184,0.0163,0.0163,0.0162,0.0162,0.0129,0.0128,0.0128,0,0,0,0,0,0,0,0,0,0,0,0,0,0.0198,0.0198,0.0203,0.0202,0.0202,0.0185,0.0184,0.0184,0.0163,0.0163,0.0162,0.0162,0.0129,0.0128,0.0128,0,0,0,0,0,0,0,0,0,0,0,0,0,0.0191,0.0198,0.0203,0.0191,0.0189,0.0185,0.0184,0.0184,0.0163,0.0163,0.0162,0.0162,0.0129,0.0128,0.0127,0.0127,0,0,0.0124,0.0124,0,0,0,0,0,0,0,0,0.0191,0.0191,0.0192,0.0191,0.019,0.0177,0.017,0.0164,0.0163,0.0172,0.0162,0.0162,0.0145,0.0142,0.0138,0.0126,0.0124,0.0124,0.0124,0.0123,0.0123,0,0,0,0,0,0,0,0.0192,0.0191,0.0194,0.0192,0.0191,0.0179,0.0178,0.0169,0.0159,0.0171,0.017,0.017,0.0144,0.0139,0.0137,0.0124,0.0124,0.0123,0.0123,0.0122,0.012,0.012,0,0,0,0,0,0,0.0198,0.0192,0.0195,0.0194,0.0191,0.018,0.0178,0.018,0.0159,0.0156,0.017,0.0169,0.0141,0.0138,0.0136,0.0146,0.0123,0.0122,0.0121,0.0119,0.012,0.012,0,0,0,0,0,0,0.0198,0.0198,0.0195,0.0193,0.0192,0.018,0.0183,0.018,0.0176,0.0159,0.0155,0.0169,0.0141,0.0137,0.0137,0.0144,0.0122,0.0121,0.0119,0.0119,0.012,0.0158,0,0,0,0,0,0,0.0198,0.0199,0.0203,0.0194,0.0193,0.02,0.0183,0.018,0.0177,0.0175,0.0157,0.0153,0.014,0.0138,0.0136,0.0142,0.012,0.0118,0.0119,0.012,0.0157,0.0161,0.0164,0,0,0,0,0,0.0198,0.0209,0.0203,0.0203,0.0198,0.0201,0.0199,0.0188,0.0177,0.0182,0.0171,0.0154,0.0143,0.0138,0.0135,0.0141,0.0117,0.0119,0.012,0.0155,0.016,0.0164,0,0,0,0,0,0,0.0205,0.0207,0.0201,0.021,0.0208,0.0198,0.02,0.0191,0.0185,0.0182,0.0162,0.0159,0.0159,0.0147,0.0142,0.0144,0.0127,0.0127,0.0155,0.0159,0.0163,0.0174,0.0119,0,0,0,0,0,0.021,0.0219,0.0216,0.0222,0.0223,0.0211,0.0209,0.0204,0.0197,0.0193,0.018,0.0168,0.0162,0.0159,0.015,0.0152,0.0136,0.0154,0.0158,0.0161,0.0168,0.0154,0.0157,0.0125,0.0125,0.0125,0,0,0.0213,0.0215,0.022,0.0224,0.0219,0.0233,0.0209,0.0212,0.0223,0.0191,0.0198,0.018,0.0166,0.0169,0.0168,0.0159,0.016,0.0163,0.0166,0.0171,0.0156,0.0159,0.0162,0.0125,0.0125,0.0125,0,0,0.0231,0.0227,0.0244,0.025,0.0251,0.0247,0.025,0.0243,0.0239,0.0243,0.0224,0.0215,0.0202,0.0196,0.0191,0.0211,0.018,0.0204,0.0232,0.0218,0.0221,0.0223,0.0199,0.0199,0.0206,0.0206,0.0206,0,0.0234,0.0257,0.0248,0.0269,0.0278,0.0257,0.0279,0.0276,0.0269,0.0272,0.0252,0.0237,0.0218,0.0228,0.023,0.022,0.0202,0.0215,0.0223,0.0225,0.0226,0.0201,0.0201,0.0208,0.0208,0.0208,0.0208,0,0.0271,0.0289,0.0299,0.032,0.0327,0.0341,0.0339,0.0342,0.0328,0.0324,0.0322,0.0293,0.0286,0.0274,0.0256,0.026,0.0239,0.0228,0.0211,0.0232,0.0204,0.0203,0.0211,0.021,0.021,0.0209,0,0,0.028,0.0318,0.0322,0.0346,0.0357,0.037,0.0385,0.0399,0.0417,0.0393,0.0407,0.0381,0.0357,0.0349,0.032,0.0301,0.0286,0.0269,0.0267,0.0245,0.0246,0.0233,0.023,0.0272,0.0272,0.0273,0.022,0,0.0311,0.0366,0.0372,0.0419,0.0448,0.044,0.046,0.0468,0.0463,0.0471,0.0435,0.0435,0.0389,0.038,0.0355,0.0307,0.0285,0.0301,0.023,0.0227,0.0214,0.0229,0.0245,0.02,0.0218,0.0218,0.0218,0,0.0347,0.0382,0.0435,0.0481,0.0491,0.0513,0.0543,0.056,0.0564,0.0558,0.0545,0.0513,0.0484,0.0437,0.0365,0.0376,0.0316,0.0271,0.0267,0.0244,0.0213,0.0184,0.0196,0.0215,0.0215,0.0215,0.0215,0,0.0372,0.0427,0.0472,0.0489,0.0532,0.0552,0.0572,0.0588,0.0613,0.0613,0.0621,0.058,0.0559,0.0484,0.0383,0.0373,0.0296,0.0274,0.0208,0.0205,0.02,0.0198,0.0226,0.0226,0.0226,0.0226,0.0227,0,0.0408,0.0447,0.049,0.052,0.0575,0.0589,0.0642,0.0655,0.0679,0.0716,0.0667,0.0676,0.0569,0.0508,0.0408,0.0305,0.0317,0.0217,0.0196,0.0213,0.0212,0.0212,0.0211,0.0224,0.0225,0.0225,0.0226,0,0.0433,0.0458,0.0517,0.057,0.059,0.0631,0.0693,0.0734,0.0744,0.0787,0.0787,0.0751,0.0675,0.0559,0.0438,0.0347,0.0244,0.0202,0.0224,0.0207,0.0152,0.0154,0.0126,0.0126,0.0125,0.0124,0.0124,0,0.0451,0.0484,0.0554,0.0592,0.0619,0.068,0.0726,0.0764,0.0811,0.0835,0.086,0.0804,0.0774,0.0592,0.0433,0.0269,0.0241,0.0166,0.0155,0.0162,0.0144,0.0147,0.015,0.0155,0.0155,0.0155,0.0155,0,0.0488,0.0508,0.0557,0.0633,0.069,0.0757,0.0825,0.0872,0.0913,0.0944,0.0971,0.0947,0.0792,0.064,0.0421,0.0306,0.0193,0.0158,0.0167,0.0182,0.0186,0.017,0.0172,0.0153,0.0154,0.0154,0.0154,0.0154,0.0511,0.0548,0.0607,0.0679,0.0744,0.082,0.0876,0.0945,0.1014,0.1055,0.1044,0.1005,0.0849,0.0571,0.0386,0.0187,0.02,0.0117,0.0119,0.012,0.0137,0.0141,0.0101,0.0101,0.0101,0.0101,0.0101,0,0.0541,0.0584,0.0651,0.0733,0.0799,0.0832,0.0932,0.098,0.1055,0.1093,0.1106,0.0938,0.078,0.0586,0.0306,0.014,0.0124,0.007,0.0094,0.0097,0.0099,0.0116,0.0074,0.0073,0.0073,0.0072,0,0,0.0558,0.0621,0.0654,0.0757,0.0815,0.0898,0.0951,0.1021,0.1066,0.109,0.1069,0.1049,0.0833,0.062,0.0403,0.0238,0.0198,0.0196,0.0237,0.0295,0.0299,0.0148,0.0179,0,0,0,0,0]}],[{"header":{"parameterUnit":"m.s-1","parameterCategory":2,"la1":30.2991,"la2":30.254,"lo1":-89.0895,"lo2":-89.0444,"dy":0.0017,"dx":0.0017,"nx":28,"ny":28,"refTime":"2025-03-30T21:00:00:Z","depth":"4","parameterNumber":2,"parameterNumberName":"U-component_of_CURRENTS"},"data":[0,0,0,0,0,0,0,0,0,0,0,0,0,0,0,0,0,0,0,0,0,0,0,0,0,0,0,0,0,0,0,0,0,0,0,0,0,0,0,0,0,0,0,0,0,0,0,0,0,0,0,0,0,0,0,0,0,0,0.1074,0.1074,0,0.1103,0.1103,0.1104,0.1135,0.1135,0.1136,0.1136,0.1192,0.1193,0.1194,0,0,0,0,0,0,0,0,0,0,0,0,0,0.1106,0.1105,0.1074,0.1074,0.1075,0.1103,0.1103,0.1104,0.1135,0.1135,0.1136,0.1136,0.1191,0.1193,0.1194,0,0,0,0,0,0,0,0,0,0,0,0,0,0.1109,0.1104,0.1074,0.1094,0.1096,0.1103,0.1103,0.1104,0.1135,0.1135,0.1136,0.1137,0.1191,0.1193,0.1194,0.119,0,0,0.1199,0.12,0,0,0,0,0,0,0,0,0.1108,0.1107,0.109,0.1092,0.1095,0.1116,0.1135,0.1134,0.1134,0.1119,0.1136,0.1137,0.1169,0.1172,0.1175,0.1193,0.1195,0.1199,0.12,0.1201,0.1201,0,0,0,0,0,0,0,0.1108,0.1107,0.1085,0.1091,0.1093,0.1122,0.1123,0.1135,0.114,0.1121,0.1123,0.1127,0.117,0.1174,0.1177,0.1196,0.1199,0.12,0.1201,0.1202,0.1284,0.1285,0,0,0,0,0,0,0.1101,0.1106,0.1084,0.1086,0.1104,0.1121,0.1121,0.1108,0.1139,0.1145,0.1126,0.1128,0.1171,0.1175,0.1179,0.1241,0.1201,0.1202,0.1203,0.1283,0.1284,0.1286,0,0,0,0,0,0,0.1101,0.1098,0.1083,0.1098,0.1098,0.1119,0.1104,0.1109,0.1136,0.1143,0.1149,0.1152,0.1171,0.1177,0.1212,0.1241,0.1203,0.1204,0.1281,0.1283,0.1285,0.1324,0,0,0,0,0,0,0.1101,0.1097,0.1101,0.1097,0.1097,0.11,0.1104,0.1109,0.1136,0.1139,0.1167,0.1172,0.1172,0.1209,0.1213,0.1243,0.1206,0.128,0.1282,0.1284,0.1321,0.1327,0.1332,0,0,0,0,0,0.1102,0.1098,0.1101,0.11,0.1096,0.1101,0.1104,0.1122,0.1137,0.115,0.1172,0.1172,0.1227,0.1211,0.1216,0.1247,0.1279,0.1282,0.1284,0.1319,0.1326,0.1332,0,0,0,0,0,0,0.1123,0.1101,0.1104,0.1096,0.1106,0.1107,0.1125,0.1135,0.1163,0.1175,0.1184,0.119,0.1234,0.1234,0.1216,0.1278,0.1254,0.1258,0.1279,0.1286,0.1291,0.1294,0.1207,0,0,0,0,0,0.1125,0.1114,0.1108,0.1108,0.1113,0.1125,0.1136,0.1145,0.1161,0.1175,0.1195,0.1219,0.1244,0.126,0.1278,0.1308,0.1317,0.1332,0.1338,0.1342,0.1348,0.1392,0.1402,0.1295,0.1295,0.1295,0,0,0.1136,0.1124,0.1121,0.1113,0.1123,0.1132,0.1134,0.1154,0.1172,0.1177,0.122,0.1241,0.1257,0.1294,0.1313,0.13,0.1376,0.1346,0.1349,0.1353,0.1396,0.1406,0.1416,0.1297,0.1296,0.1296,0,0,0.1145,0.1141,0.1134,0.114,0.1152,0.1157,0.1167,0.1181,0.1202,0.1238,0.1251,0.1289,0.1324,0.1341,0.1354,0.14,0.1405,0.1411,0.144,0.1483,0.1492,0.15,0.1518,0.1528,0.1412,0.1412,0.1412,0,0.1166,0.1146,0.114,0.1141,0.1153,0.117,0.118,0.12,0.1228,0.1253,0.1261,0.1335,0.1347,0.1394,0.1411,0.1413,0.1431,0.1412,0.149,0.1498,0.1506,0.1523,0.1533,0.1414,0.1414,0.1414,0.1413,0,0.1159,0.1161,0.1164,0.1163,0.1179,0.1192,0.1211,0.1242,0.1275,0.1297,0.1363,0.1386,0.1432,0.1443,0.1442,0.1505,0.1498,0.1493,0.1472,0.1519,0.1534,0.1543,0.1417,0.1416,0.1416,0.1415,0,0,0.1161,0.1158,0.1163,0.1169,0.1192,0.1199,0.1241,0.1277,0.1317,0.1362,0.1415,0.1465,0.1492,0.1507,0.1518,0.1552,0.1617,0.155,0.1551,0.1565,0.1705,0.1579,0.1577,0.1633,0.1636,0.1637,0.1691,0,0.1165,0.1161,0.1165,0.1188,0.1191,0.1225,0.1262,0.1305,0.1352,0.1408,0.1454,0.151,0.1512,0.1544,0.1582,0.1613,0.1646,0.1602,0.166,0.1661,0.1541,0.1585,0.1644,0.1698,0.17,0.1701,0.1703,0,0.1151,0.1151,0.1165,0.1193,0.1202,0.123,0.1297,0.1332,0.1412,0.1455,0.1523,0.1558,0.1625,0.1615,0.1701,0.1678,0.1699,0.1714,0.1717,0.1592,0.1553,0.1643,0.172,0.1719,0.1717,0.1716,0.1715,0,0.1132,0.1151,0.1163,0.1172,0.121,0.1244,0.128,0.1356,0.14,0.1492,0.1539,0.1619,0.167,0.1719,0.1755,0.1743,0.1835,0.1819,0.1723,0.1714,0.1794,0.1784,0.188,0.188,0.188,0.188,0.188,0,0.111,0.1125,0.116,0.1165,0.1204,0.1242,0.1304,0.1355,0.144,0.1493,0.1567,0.1614,0.1704,0.176,0.1781,0.1778,0.1863,0.1733,0.1724,0.1807,0.1799,0.18,0.179,0.1882,0.1881,0.1881,0.188,0,0.1077,0.1099,0.1117,0.1167,0.1191,0.1223,0.1308,0.1347,0.1438,0.151,0.1544,0.1641,0.1705,0.1767,0.1844,0.1797,0.1812,0.1789,0.187,0.1864,0.1653,0.1645,0.1683,0.1679,0.1676,0.1673,0.1671,0,0.1049,0.1054,0.1112,0.1132,0.1159,0.1215,0.1252,0.1342,0.1382,0.1508,0.1529,0.1627,0.1679,0.1681,0.1753,0.1779,0.176,0.1747,0.1699,0.1648,0.1636,0.1633,0.1629,0.1666,0.1665,0.1664,0.1663,0,0.1002,0.1039,0.1056,0.1094,0.1134,0.1166,0.1225,0.1246,0.1348,0.1445,0.1479,0.1507,0.1569,0.1609,0.1639,0.1655,0.1743,0.1712,0.1719,0.1673,0.1628,0.1618,0.1618,0.1651,0.1653,0.1654,0.1655,0,0.098,0.0982,0.1015,0.1042,0.109,0.1096,0.1133,0.1169,0.1218,0.1352,0.1362,0.1459,0.1554,0.1545,0.1577,0.1578,0.1553,0.1494,0.1511,0.1525,0.1447,0.1364,0.1305,0,0,0,0,0,0.0947,0.0937,0.0955,0.0973,0.1016,0.1041,0.1104,0.1143,0.1243,0.1232,0.1293,0.134,0.1373,0.1422,0.1393,0.151,0.1562,0.1468,0.1504,0.1588,0.1601,0.1523,0,0,0,0,0,0,0.0923,0.0937,0.0929,0.0911,0.0913,0.0943,0.0978,0.104,0.1036,0.1147,0.1173,0.1257,0.1313,0.1384,0.137,0.1385,0.1377,0.1534,0.153,0.158,0.1592,0.1603,0.1527,0,0,0,0,0]},{"header":{"parameterUnit":"m.s-1","parameterCategory":2,"la1":30.2991,"la2":30.254,"lo1":-89.0895,"lo2":-89.0444,"dy":0.0017,"dx":0.0017,"nx":28,"ny":28,"refTime":"2025-03-30T21:00:00:Z","depth":"4","parameterNumber":3,"parameterNumberName":"V-component_of_CURRENTS"},"data":[0,0,0,0,0,0,0,0,0,0,0,0,0,0,0,0,0,0,0,0,0,0,0,0,0,0,0,0,0,0,0,0,0,0,0,0,0,0,0,0,0,0,0,0,0,0,0,0,0,0,0,0,0,0,0,0,0,0,0.0231,0.0231,0,0.0229,0.0229,0.0228,0.0215,0.0215,0.0214,0.0214,0.0194,0.0194,0.0194,0,0,0,0,0,0,0,0,0,0,0,0,0,0.0206,0.0206,0.0231,0.0231,0.0231,0.0229,0.0229,0.0228,0.0215,0.0215,0.0214,0.0214,0.0194,0.0194,0.0194,0,0,0,0,0,0,0,0,0,0,0,0,0,0.0211,0.0207,0.0231,0.0225,0.0224,0.0229,0.0229,0.0228,0.0215,0.0215,0.0214,0.0214,0.0194,0.0194,0.0194,0.02,0,0,0.0192,0.0192,0,0,0,0,0,0,0,0,0.0211,0.0212,0.0226,0.0225,0.0224,0.0222,0.0212,0.0218,0.0215,0.0218,0.0214,0.0214,0.0202,0.0201,0.0201,0.0199,0.0198,0.0192,0.0192,0.0192,0.0192,0,0,0,0,0,0,0,0.021,0.0212,0.023,0.0226,0.0225,0.0215,0.0216,0.0213,0.0212,0.0218,0.0217,0.0217,0.0202,0.0202,0.0201,0.0198,0.0192,0.0192,0.0192,0.0192,0.0206,0.0207,0,0,0,0,0,0,0.0213,0.0212,0.023,0.023,0.0217,0.0216,0.0216,0.0223,0.0212,0.0211,0.0218,0.0217,0.0203,0.0201,0.02,0.0218,0.0192,0.0192,0.0191,0.0206,0.0206,0.0207,0,0,0,0,0,0,0.0213,0.0215,0.023,0.022,0.0222,0.0217,0.0224,0.0223,0.0224,0.0213,0.021,0.022,0.0202,0.0201,0.0207,0.0217,0.0191,0.0191,0.0205,0.0206,0.0207,0.0247,0,0,0,0,0,0,0.0212,0.0215,0.0222,0.0221,0.0222,0.0238,0.0225,0.0223,0.0225,0.0224,0.0214,0.0212,0.0202,0.0208,0.0207,0.0216,0.0191,0.0204,0.0205,0.0206,0.0245,0.0249,0.0253,0,0,0,0,0,0.0211,0.0225,0.0222,0.0225,0.0232,0.0239,0.0239,0.0233,0.0226,0.0232,0.0227,0.0212,0.0214,0.0208,0.0207,0.0216,0.0204,0.0205,0.0206,0.0243,0.0248,0.0253,0,0,0,0,0,0,0.0215,0.0225,0.0222,0.0237,0.0239,0.0237,0.0243,0.0237,0.0238,0.0238,0.0223,0.0221,0.0229,0.0219,0.0213,0.0224,0.0205,0.0206,0.0234,0.0238,0.0242,0.0247,0.019,0,0,0,0,0,0.022,0.0234,0.0236,0.0248,0.0252,0.0248,0.025,0.0247,0.0246,0.0246,0.0241,0.0235,0.0234,0.0233,0.0231,0.0239,0.0216,0.0243,0.0247,0.0251,0.0253,0.0229,0.0231,0.0212,0.0212,0.0212,0,0,0.0224,0.0232,0.0239,0.025,0.0252,0.0266,0.0248,0.0257,0.0267,0.0244,0.0259,0.025,0.024,0.025,0.0252,0.0242,0.0244,0.0252,0.0255,0.0256,0.0231,0.0233,0.0234,0.0213,0.0212,0.0212,0,0,0.0242,0.0248,0.0266,0.0273,0.028,0.028,0.0284,0.0287,0.0287,0.0298,0.0285,0.0285,0.0284,0.028,0.0276,0.0301,0.0266,0.0298,0.0322,0.0298,0.03,0.03,0.0271,0.0268,0.0299,0.0299,0.0299,0,0.0245,0.027,0.0271,0.0289,0.0299,0.029,0.0309,0.0311,0.0314,0.0319,0.0309,0.0308,0.0299,0.0307,0.0315,0.031,0.0287,0.0304,0.0303,0.0303,0.0303,0.0273,0.027,0.0302,0.0301,0.0301,0.0301,0,0.0276,0.0296,0.0308,0.0331,0.034,0.0357,0.036,0.0367,0.0364,0.0363,0.037,0.0357,0.0355,0.0351,0.0341,0.0342,0.0322,0.0311,0.029,0.0308,0.0274,0.027,0.0305,0.0304,0.0303,0.0303,0,0,0.0283,0.0322,0.0327,0.0347,0.0365,0.0378,0.0396,0.041,0.0423,0.0418,0.0428,0.0424,0.041,0.0405,0.0388,0.0369,0.0349,0.0343,0.0341,0.0312,0.029,0.0274,0.0268,0.0335,0.0335,0.0334,0.0265,0,0.0307,0.0353,0.0365,0.0406,0.043,0.0432,0.0452,0.0461,0.0462,0.047,0.0449,0.0454,0.0432,0.043,0.0409,0.0366,0.0341,0.0369,0.0278,0.0276,0.0258,0.0264,0.0333,0.0262,0.0261,0.026,0.026,0,0.0332,0.0362,0.0409,0.045,0.0461,0.0483,0.0511,0.0528,0.0532,0.0529,0.0523,0.0503,0.0483,0.0457,0.0389,0.0405,0.0353,0.0314,0.031,0.0279,0.0253,0.024,0.0252,0.0253,0.0253,0.0254,0.0254,0,0.0343,0.0393,0.0434,0.0449,0.0491,0.0512,0.0534,0.0549,0.0569,0.0568,0.0572,0.054,0.0524,0.046,0.0382,0.0382,0.0295,0.0283,0.0218,0.0216,0.0232,0.0232,0.023,0.023,0.023,0.023,0.0231,0,0.0364,0.0398,0.0445,0.0469,0.0517,0.0537,0.0583,0.0594,0.0613,0.0636,0.0606,0.0603,0.0523,0.0465,0.0389,0.0292,0.0297,0.0221,0.0199,0.025,0.0253,0.0228,0.0229,0.0228,0.0228,0.0229,0.0229,0,0.037,0.0402,0.0452,0.0506,0.0526,0.0561,0.0621,0.0649,0.0661,0.0685,0.0685,0.0646,0.0571,0.0482,0.0372,0.0303,0.0211,0.0173,0.0232,0.0213,0.0143,0.0146,0.0093,0.0092,0.0091,0.009,0.0089,0,0.0378,0.0406,0.0476,0.0509,0.0538,0.0594,0.0633,0.0669,0.0697,0.0708,0.0715,0.0658,0.0617,0.0449,0.0355,0.0206,0.0185,0.0127,0.0139,0.0146,0.0129,0.0135,0.0139,0.0088,0.0087,0.0087,0.0087,0,0.039,0.0416,0.0459,0.0526,0.0576,0.0633,0.0688,0.0711,0.0746,0.0757,0.073,0.0652,0.0565,0.0444,0.0329,0.0224,0.0161,0.0117,0.0119,0.0129,0.014,0.0125,0.0131,0.0084,0.0084,0.0085,0.0085,0,0.0397,0.0423,0.0479,0.0536,0.0599,0.065,0.0684,0.0715,0.0743,0.0752,0.074,0.0654,0.0609,0.0452,0.0348,0.0243,0.0214,0.0169,0.0167,0.0169,0.0214,0.024,0.0195,0,0,0,0,0,0.04,0.043,0.0484,0.0547,0.0608,0.0644,0.0709,0.0738,0.0769,0.075,0.0747,0.0666,0.0514,0.0455,0.0346,0.0326,0.0194,0.0193,0.014,0.0066,0.007,0.0108,0,0,0,0,0,0,0.0403,0.0452,0.0478,0.0543,0.0583,0.0651,0.0693,0.0718,0.071,0.0723,0.0648,0.0621,0.0479,0.0572,0.0336,0.0307,0.0253,0.0131,0.0128,0.0064,0.0067,0.007,0.0111,0,0,0,0,0]}]]